Date String (YYYY-MM-DD hh:mm:ss) UTC,Instrument flags,absolute air pressure of the measurement (hPa),sample flow rate (lpm),inlet stack bypass flow (lpm),air temperature of the measurement (°C),ambient temperature measured by the external sensor (°C),aerosol sample conditioner tube jacket temperature (°C),OPC LED temperature (°C),internal box temperature (°C),relative humidity of the measurement (%),span deviation,mass concentration of particles derived from Lorenz-Mie calculation of OPC scattering (μg/m³),mass concentration of particles derived from Lorenz-Mie calculation of OPC scattering (μg/m³),mass concentration of particles derived from Lorenz-Mie calculation of OPC scattering (μg/m³)
DateTimeUTC,F1_M11,P_M11,Q1_M11,Q2_M11,T1_M11,T2_M11,T3_M11,T4_M11,T5_M11,U1_M11,ZSPAN_M11,X0_M11,X2_M11,X1_M11
2023-12-05 20:00:00,SystemResetWarning,0835.2,5.00,000.00,026.2,025.5,000.0,034.2,027.6,17.7,0005.4,0013.58,0006.72,0006.08
2023-12-05 20:01:00,SystemResetWarning,0835.1,5.00,000.00,026.2,025.5,000.0,034.3,027.6,17.9,0005.4,0013.70,0006.87,0006.20
2023-12-05 20:02:00,SystemResetWarning,0834.9,5.00,000.00,026.2,025.5,000.0,034.3,027.6,17.9,0005.4,0013.97,0007.03,0006.29
2023-12-05 20:03:00,SystemResetWarning,0834.7,5.00,000.00,026.2,025.5,000.0,034.3,027.6,18.0,0005.3,0013.85,0007.06,0006.30
2023-12-05 20:04:00,SystemResetWarning,0834.9,5.00,000.00,026.3,025.5,000.0,034.3,027.7,18.0,0005.2,0013.66,0007.04,0006.27
2023-12-05 20:05:00,SystemResetWarning,0834.7,5.00,000.00,026.3,025.5,000.0,034.3,027.7,18.0,0003.4,0013.13,0006.91,0006.17
2023-12-05 20:06:00,SystemResetWarning,0834.7,5.00,000.00,026.3,025.5,000.0,034.4,027.7,17.9,0001.0,0012.87,0006.80,0006.04
2023-12-05 20:07:00,SystemResetWarning,0834.7,5.00,000.00,026.3,025.5,000.0,034.4,027.7,18.0,0000.0,0013.27,0006.74,0005.96
2023-12-05 20:08:00,SystemResetWarning,0834.7,4.99,000.00,026.3,025.6,000.0,034.4,027.7,18.1,0000.0,0013.51,0006.68,0005.85
2023-12-05 20:09:00,SystemResetWarning,0834.7,4.99,000.00,026.3,025.6,000.0,034.4,027.7,17.9,0000.0,0013.91,0006.57,0005.75
2023-12-05 20:10:00,SystemResetWarning,0834.7,5.00,000.00,026.4,025.6,000.0,034.4,027.8,17.9,0000.0,0013.61,0006.53,0005.69
2023-12-05 20:11:00,SystemResetWarning,0834.8,4.99,000.00,026.4,025.6,000.0,034.4,027.8,17.6,0000.0,0013.67,0006.55,0005.66
2023-12-05 20:12:00,SystemResetWarning,0835.1,5.00,000.00,026.4,025.6,000.0,034.5,027.8,17.7,0000.0,0013.73,0006.56,0005.70
2023-12-05 20:13:00,SystemResetWarning,0835.1,5.00,000.00,026.4,025.6,000.0,034.5,027.8,17.8,0000.0,0013.70,0006.60,0005.79
2023-12-05 20:14:00,SystemResetWarning,0835.3,5.01,000.00,026.4,025.7,000.0,034.5,027.8,17.8,0000.0,0013.69,0006.67,0005.87
2023-12-05 20:15:00,SystemResetWarning,0835.4,5.01,000.00,026.4,025.7,000.0,034.5,027.9,17.7,0000.0,0014.08,0006.74,0005.93
2023-12-05 20:16:00,SystemResetWarning,0835.4,5.00,000.00,026.5,025.7,000.0,034.5,027.9,17.7,0000.0,0014.87,0006.79,0005.96
2023-12-05 20:17:00,SystemResetWarning,0835.4,5.00,000.00,026.5,025.7,000.0,034.6,027.9,17.4,0000.0,0015.44,0006.85,0006.00
2023-12-05 20:18:00,SystemResetWarning,0835.3,5.00,000.00,026.5,025.7,000.0,034.6,027.9,17.3,0000.0,0015.44,0006.92,0006.04
2023-12-05 20:19:00,SystemResetWarning,0834.7,4.99,000.00,026.5,025.7,000.0,034.6,027.9,17.2,0000.0,0015.25,0006.91,0006.08
2023-12-05 20:20:00,SystemResetWarning,0834.7,5.00,000.00,026.5,025.8,000.0,034.6,027.9,17.1,0000.0,0014.14,0006.90,0006.07
2023-12-05 20:21:00,SystemResetWarning,0834.8,5.00,000.00,026.6,025.8,000.0,034.6,028.0,17.0,0000.0,0013.87,0006.89,0006.06
2023-12-05 20:22:00,SystemResetWarning,0834.7,5.00,000.00,026.6,025.8,000.0,034.6,028.0,17.3,0000.0,0013.61,0006.89,0006.07
2023-12-05 20:23:00,SystemResetWarning,0834.7,5.00,000.00,026.6,025.8,000.0,034.7,028.0,17.3,0000.0,0013.51,0006.86,0006.03
2023-12-05 20:24:00,SystemResetWarning,0834.8,5.00,000.00,026.6,025.9,000.0,034.7,028.0,17.1,0000.0,0013.56,0006.81,0005.97
2023-12-05 20:25:00,SystemResetWarning,0834.8,5.00,000.00,026.6,025.9,000.0,034.7,028.0,17.0,0000.0,0013.46,0006.72,0005.91
2023-12-05 20:26:00,SystemResetWarning,0834.8,5.01,000.00,026.7,025.9,000.0,034.7,028.1,16.9,0000.0,0013.15,0006.65,0005.84
2023-12-05 20:27:00,SystemResetWarning,0834.7,5.00,000.00,026.7,025.9,000.0,034.7,028.1,16.6,0000.0,0012.23,0006.56,0005.77
2023-12-05 20:28:00,SystemResetWarning,0834.7,5.00,000.00,026.7,025.9,000.0,034.8,028.1,16.5,0000.0,0011.46,0006.44,0005.66
2023-12-05 20:29:00,SystemResetWarning,0834.7,5.00,000.00,026.7,026.0,000.0,034.8,028.1,16.7,0000.0,0010.90,0006.34,0005.56
2023-12-05 20:30:00,SystemResetWarning,0834.8,5.00,000.00,026.7,026.0,000.0,034.8,028.2,16.1,0000.0,0010.50,0006.24,0005.44
2023-12-05 20:31:00,SystemResetWarning,0834.9,5.00,000.00,026.8,026.0,000.0,034.8,028.2,15.6,0000.0,0010.37,0006.13,0005.33
2023-12-05 20:32:00,SystemResetWarning,0835.0,5.00,000.00,026.8,026.0,000.0,034.8,028.2,16.3,0000.0,0010.56,0006.05,0005.22
2023-12-05 20:33:00,SystemResetWarning,0834.9,5.00,000.00,026.8,026.0,000.0,034.8,028.2,16.7,0000.0,0011.18,0005.88,0005.08
2023-12-05 20:34:00,SystemResetWarning,0834.8,4.99,000.00,026.8,026.1,000.0,034.9,028.2,16.3,0000.0,0010.97,0005.73,0004.95
2023-12-05 20:35:00,SystemResetWarning,0834.8,5.00,000.00,026.8,026.1,000.0,034.9,028.2,16.3,0000.0,0010.90,0005.62,0004.82
2023-12-05 20:36:00,SystemResetWarning,0834.8,5.00,000.00,026.9,026.1,000.0,034.9,028.3,15.9,0000.0,0011.50,0005.53,0004.69
2023-12-05 20:37:00,SystemResetWarning,0834.8,4.99,000.00,026.9,026.1,000.0,034.9,028.3,15.8,0000.0,0011.84,0005.40,0004.57
2023-12-05 20:38:00,SystemResetWarning,0835.0,5.00,000.00,026.9,026.1,000.0,035.0,028.3,15.9,0000.0,0011.84,0005.27,0004.44
2023-12-05 20:39:00,SystemResetWarning,0835.3,4.99,000.00,026.9,026.1,000.0,035.0,028.3,15.7,0000.0,0012.23,0005.13,0004.31
2023-12-05 20:40:00,SystemResetWarning,0835.3,5.00,000.00,026.9,026.2,000.0,035.0,028.3,15.8,0000.0,0012.01,0004.95,0004.17
2023-12-05 20:41:00,SystemResetWarning,0835.3,5.00,000.00,027.0,026.2,000.0,035.0,028.4,16.1,0000.0,0012.03,0004.85,0004.10
2023-12-05 20:42:00,SystemResetWarning,0835.3,5.01,000.00,027.0,026.2,000.0,035.0,028.4,16.0,0000.0,0012.00,0004.82,0004.06
2023-12-05 20:43:00,SystemResetWarning,0835.3,5.01,000.00,027.0,026.2,000.0,035.0,028.4,15.5,0000.0,0011.66,0004.70,0004.00
2023-12-05 20:44:00,SystemResetWarning,0835.4,5.00,000.00,027.0,026.2,000.0,035.1,028.4,15.9,0000.0,0011.14,0004.62,0003.95
2023-12-05 20:45:00,SystemResetWarning,0835.3,5.01,000.00,027.0,026.3,000.0,035.1,028.4,15.7,0000.0,0010.97,0004.58,0003.89
2023-12-05 20:46:00,SystemResetWarning,0835.3,5.00,000.00,027.0,026.3,000.0,035.1,028.5,15.0,0000.0,0010.93,0004.55,0003.84
2023-12-05 20:47:00,SystemResetWarning,0835.4,5.00,000.00,027.1,026.3,000.0,035.1,028.5,14.9,0000.0,0010.35,0004.50,0003.79
2023-12-05 20:48:00,SystemResetWarning,0835.4,5.00,000.00,027.1,026.3,000.0,035.1,028.5,15.0,0000.0,0010.18,0004.43,0003.75
2023-12-05 20:49:00,SystemResetWarning,0835.1,5.00,000.00,027.1,026.3,000.0,035.2,028.5,14.9,0000.0,0010.31,0004.43,0003.72
2023-12-05 20:50:00,SystemResetWarning,0834.7,5.00,000.00,027.1,026.3,000.0,035.2,028.5,14.8,0000.0,0010.00,0004.47,0003.73
2023-12-05 20:51:00,SystemResetWarning,0834.8,5.00,000.00,027.1,026.4,000.0,035.2,028.6,14.7,0000.0,0009.85,0004.50,0003.76
2023-12-05 20:52:00,SystemResetWarning,0834.8,4.99,000.00,027.2,026.4,000.0,035.2,028.6,14.7,0000.0,0009.71,0004.47,0003.73
2023-12-05 20:53:00,SystemResetWarning,0834.8,5.00,000.00,027.2,026.4,000.0,035.2,028.6,14.9,0000.0,0010.02,0004.43,0003.70
2023-12-05 20:54:00,SystemResetWarning,0834.7,5.00,000.00,027.2,026.4,000.0,035.3,028.6,14.7,0000.0,0010.17,0004.40,0003.67
2023-12-05 20:55:00,SystemResetWarning,0834.8,5.00,000.00,027.2,026.4,000.0,035.3,028.6,14.8,0000.0,0010.21,0004.36,0003.62
2023-12-05 20:56:00,SystemResetWarning,0834.8,5.01,000.00,027.2,026.4,000.0,035.3,028.6,15.1,0000.0,0010.19,0004.32,0003.61
2023-12-05 20:57:00,SystemResetWarning,0834.7,5.00,000.00,027.3,026.5,000.0,035.3,028.6,15.3,0000.0,0010.05,0004.27,0003.59
2023-12-05 20:58:00,SystemResetWarning,0834.8,5.00,000.00,027.3,026.5,000.0,035.3,028.7,15.4,0000.0,0010.06,0004.22,0003.57
2023-12-05 20:59:00,SystemResetWarning,0834.7,4.99,000.00,027.3,026.5,000.0,035.4,028.7,15.2,0000.0,0009.93,0004.20,0003.56
